Regional Weather Roundup
Issued by NWS

Home | Current Version | Previous Version | Graphics & Text | Print | Product List | Glossary On
Versions: 1 2 3 4 5 6 7 8 9 10 11 12 13 14 15 16 17 18 19 20 21 22 23 24 25 26 27
000
ASUS45 KBOU 282307
RWRCO

WEATHER ROUNDUP FOR COLORADO
NATIONAL WEATHER SERVICE DENVER/BOULDER CO
500 PM MDT WED JUN 28 2017

NOTE: "FAIR" INDICATES FEW OR NO CLOUDS BELOW 12000 FEET WITH NO
SIGNIFICANT WEATHER AND/OR OBSTRUCTIONS TO VISIBILITY.

COZ001>005-013-030-031-290000-
...NORTHWEST COLORADO...

CITY           SKY/WX    TMP DP  RH WIND       PRES   REMARKS
CRAIG          FAIR      84  24  11 SW20G29   29.89F
HAYDEN         FAIR      79  27  14 SW15G28   29.93F
MEEKER         FAIR      84  21  10 SW12G18   29.91F
RABBIT EARS PA FAIR      57  30  35 W9        30.26F
STEAMBOAT SPGS FAIR      78  31  18 S14G21    29.96F
WALDEN         FAIR      72  27  18 SW21      30.08F
$$

COZ006>008-011-290000-
...WEST CENTRAL VALLEYS...

CITY           SKY/WX    TMP DP  RH WIND       PRES   REMARKS
GRAND JUNCTION FAIR      96  15   5 VRB6      29.78F
MONTROSE       FAIR      89  17   7 SW18      29.89F
EAGLE          MOSUNNY   86  21   9 NW18G29   29.95F
RIFLE          FAIR      93  10   4 W17G32    29.84F
DELTA          FAIR      94  17   6 SW9       29.83S
NUCLA          NOT AVBL
$$

COZ017>023-064>068-290000-
...SOUTHWEST COLORADO...

CITY           SKY/WX    TMP DP  RH WIND       PRES   REMARKS
DURANGO        FAIR      87   7   5 NW16G32   30.02F
CORTEZ         FAIR      91  -1   3 SW17G37   29.96F
PAGOSA SPRINGS FAIR      83   5   5 SW20G25   30.11S
TELLURIDE      FAIR      75  14   9 SW14G20   30.23F
WOLF CREEK PAS FAIR      59  18  20 SW12G29   30.48R
$$

COZ009-010-012-014-032>034-037-058>063-290000-
...CENTRAL COLORADO...

CITY           SKY/WX    TMP DP  RH WIND       PRES   REMARKS
ASPEN          FAIR      78  19  11 W9G18     30.04F
BUENA VISTA    FAIR      82  16   8 W23G29    30.05F
COPPER MTN     PTSUNNY   63  18  17 W16G26    30.40S
BERTHOUD PASS  PTSUNNY   50  36  57 W22G45    30.43R
COTTONWOOD PAS FAIR      73   3   6 W14G28    30.22R
GUNNISON       FAIR      79  24  13 W16G25    30.06F
KREMMLING      FAIR      81  23  12 NW8       30.02F
LEADVILLE      FAIR      69  14  12 W9G21     30.21F
MONARCH PASS   FAIR      63  18  17 W29G44    30.50S
SALIDA         FAIR      86  16   7 W13G22    30.08S
SUNLIGHT       FAIR      68  21  17 SW12G30   30.30F
WILKERSON PASS FAIR      63  10  13 SW13G21   30.34S
$$

COZ069>075-290000-
...SAN LUIS VALLEY/SANGRE DE CRISTO MOUNTAINS...

CITY           SKY/WX    TMP DP  RH WIND       PRES   REMARKS
ALAMOSA        FAIR      84  19   9 SW21G29   30.03F
DEL NORTE      FAIR      82  28  13 SW22G33   30.05S
LA VETA PASS   FAIR      73  19  13 MISG      30.37F
SAGUACHE       FAIR      82  21  10 N10       30.03F
$$

COZ035-036-038>040-290000-
...NORTHERN COLORADO FRONT RANGE...

CITY           SKY/WX    TMP DP  RH WIND       PRES   REMARKS
DENVER INTL AP PTSUNNY   88  32  13 SW9       29.84F
DMNS CITY PARK   N/A     85  37  17 NE6G17    29.83F
AURORA         PTSUNNY   87  35  16 W6        29.87R
FRONT RANGE AP FAIR      88  32  13 W8G16     29.87R
ERIE MUNI ARPT FAIR      87  33  14 N12G20    29.83S
BOULDER MUN AP FAIR      88  36  15 N3        29.84S
CENTENNIAL     PTSUNNY   85  33  15 N9        29.87F
BROOMFIELD     FAIR      86  36  16 NE12      29.87F
FORT COLLINS   FAIR      86  34  15 N3        29.84S
LONGMONT       FAIR      88  35  15 N3        29.85S
$$

COZ041-046-047-076>085-087-088-290000-
...PIKES PEAK/PALMER DIVIDE AND SOUTHERN FOOTHILLS...

CITY           SKY/WX    TMP DP  RH WIND       PRES   REMARKS
COLO. SPRINGS  FAIR      88  32  13 S17G29    29.89F
A. F. ACADEMY  FAIR      82  35  18 SE17      29.89F
SCHRIEVER AFB  FAIR      85  31  14 S16       29.91F
CHEYENNE MTN   FAIR      79  33  18 S22G31    29.90F
ELLICOTT       FAIR     N/A N/A N/A S20G29    29.88F
FALCON           N/A     84  29  13 S17G24    29.97F
FORT CARSON    FAIR      89  39  17 S17G28    29.86F
LIMON          FAIR      88  38  17 SE20G28   29.86F
MONUMENT HILL  PTSUNNY   77  32  19 SE10G22   29.99R
CANON CITY     SUNNY     93  41  16 E14       29.83S
WALSENBURG     FAIR      93  23   8 SW18G25   29.88F
TRINIDAD       FAIR      90  38  16 SE18G29   29.86F
$$

COZ042>045-048>051-090-091-290000-
...NORTHEAST COLORADO...

CITY           SKY/WX    TMP DP  RH WIND       PRES   REMARKS
GREELEY ARPT   FAIR      87  43  21 SE5       29.82S
AKRON          FAIR      85  40  20 S13G26    29.84F
BURLINGTON     FAIR      88  47  24 SE9       29.82F
WRAY           FAIR      86  43  22 SE6       29.81R
YUMA           FAIR      81  50  34 S8        29.82S
STERLING       FAIR      90  43  19 S5        29.78S
HOLYOKE        NOT AVBL
FORT MORGAN    FAIR      86  37  17 SE9       29.82F
$$

COZ086-089-092>099-290000-
...SOUTHEAST COLORADO...

CITY           SKY/WX    TMP DP  RH WIND       PRES   REMARKS
PUEBLO         FAIR      95  38  13 SE17G28   29.77F
LA JUNTA       FAIR      94  42  16 SE16G24   29.76F
LAMAR          FAIR      95  44  17 E13       29.74F
SPRINGFIELD      N/A     91  49  23 SE12      29.81F
$$




USA.gov is the U.S. government's official web portal to all federal, state and local government web resources and services.